Flag for Switzerland Weather past 2 weeks in Liestal, Basel-Land, Switzerland

Now
86 °F

Sunny.


Feels Like: 88 °F
Forecast: 65 / 95 °F
Wind: 3 mph from West

Location: Bale-Mulhouse

Current Time: Jul 6, 2015 at 8:28:02 PM

Latest Report: Jul 6, 2015 at 8:00 PM


Visibility: 10 mi

Pressure: 30.07 "Hg

Humidity: 52%

Dew point: 66 °F

Location of LiestalLocation

Historic Weather in Liestal — Graph

°F

Liestal temperature yesterday

Maximum temperature yesterday: 99 °F (at 5:30 PM)
Minimum temperature yesterday: 68 °F (at 5:00 AM)
Average temperature yesterday: 84 °F

Past Weeks' High & Low Weather Summary

 TemperatureHumidityPressure
High99 °F (Jul 5, 5:30 PM)100% (Jun 22, 5:30 AM)30.24 "Hg (Jun 22, 5:30 AM)
Low45 °F (Jun 24, 4:30 AM)26% (Jun 26, 3:00 PM)29.74 "Hg (Jun 22, 9:00 PM)
Average72 °F64%30.11 "Hg
* Reported Jun 21 7:00 PM — Jul 6 7:30 PM, Liestal, Weather by CustomWeather, © 2015

Note: Actual official high and low records may vary slightly from our data, if they occured in-between our weather recording intervals... More about our weather records

Advertising

Liestal weather history for previous 24 hours

 ConditionsComfort  
Time TempWeatherWind HumidityBarometerVisibility
7:30 PM
Mon, Jul 6
86 °FPassing clouds.5 mph49%30.07 "HgN/A
7:00 PM86 °FSunny.6 mph49%30.07 "Hg10 mi
6:30 PM88 °FPassing clouds.5 mph43%30.07 "HgN/A
6:00 PM88 °FPassing clouds.3 mph40%30.07 "HgN/A
5:30 PM88 °FPassing clouds.5 mph40%30.09 "HgN/A
5:00 PM86 °FSunny.6 mph43%30.09 "Hg10 mi
4:30 PM86 °FPassing clouds.5 mph43%30.09 "HgN/A
4:00 PM86 °FSunny.5 mph43%30.12 "Hg10 mi
3:30 PM86 °FPassing clouds.5 mph43%30.12 "HgN/A
3:00 PM84 °FSunny.2 mph45%30.12 "Hg10 mi
2:30 PM82 °FPartly sunny.6 mph45%30.15 "HgN/A
2:00 PM82 °FPartly sunny.6 mph45%30.15 "HgN/A
1:30 PM82 °FPassing clouds.6 mph48%30.15 "HgN/A
1:00 PM81 °FPassing clouds.6 mph51%30.18 "HgN/A
12:30 PM79 °FPassing clouds.6 mph51%30.18 "HgN/A
12:00 PM79 °FPassing clouds.6 mph51%30.18 "HgN/A
11:30 AM77 °FPassing clouds.6 mph54%30.18 "HgN/A
11:00 AM75 °FPassing clouds.7 mph57%30.21 "HgN/A
10:30 AM75 °FPassing clouds.8 mph57%30.21 "HgN/A
10:00 AM73 °FScattered clouds.7 mph57%30.21 "HgN/A
9:30 AM72 °FScattered clouds.10 mph61%30.21 "HgN/A
9:00 AM72 °FPassing clouds.10 mph65%30.21 "HgN/A
8:30 AM72 °FPassing clouds.10 mph61%30.21 "HgN/A
8:00 AM70 °FScattered clouds.12 mph64%30.21 "HgN/A
7:30 AM70 °FPartly sunny.13 mph64%30.18 "HgN/A
7:00 AM70 °FPartly sunny.9 mph73%30.18 "HgN/A
6:30 AM70 °FPartly cloudy.8 mph73%30.18 "HgN/A
6:00 AM70 °FClear.9 mph73%30.18 "Hg10 mi
5:30 AM72 °FPassing clouds.7 mph69%30.18 "HgN/A
5:00 AM73 °FPassing clouds.12 mph65%30.15 "HgN/A
4:30 AM73 °FPassing clouds.14 mph69%30.15 "HgN/A
4:00 AM73 °FPassing clouds.14 mph69%30.15 "HgN/A
3:30 AM73 °FPassing clouds.12 mph69%30.15 "HgN/A
3:00 AM73 °FPassing clouds.12 mph69%30.15 "HgN/A
2:30 AM75 °FPassing clouds.9 mph65%30.12 "HgN/A
2:00 AM77 °FPassing clouds.13 mph61%30.12 "HgN/A
1:30 AM77 °FPassing clouds.8 mph65%30.12 "HgN/A
1:00 AM79 °FWarm.12 mph61%30.12 "HgN/A
12:30 AM81 °FPassing clouds.12 mph58%30.09 "HgN/A
12:00 AM81 °FPassing clouds.9 mph58%30.07 "HgN/A
11:30 PM
Sun, Jul 5
82 °FPassing clouds.10 mph51%30.07 "HgN/A
11:00 PM82 °FPartly cloudy.7 mph48%30.04 "HgN/A
10:30 PM84 °FPassing clouds.5 mph45%30.01 "HgN/A
10:00 PM82 °FPartly sunny.6 mph48%30.01 "HgN/A
9:30 PM86 °FPartly sunny.5 mph43%29.98 "HgN/A
9:00 PM88 °FPassing clouds.8 mph43%29.98 "HgN/A
8:30 PM88 °FScattered clouds.7 mph40%29.98 "HgN/A
8:00 PM91 °FScattered clouds.9 mph41%29.95 "HgN/A
Weather by CustomWeather, © 2015

See weather overviewHow to use our weather pages